Clinton, MO

12:10 AM CST on February 08, 2016 (GMT -0600)
Clinton Memorial

Weather History for KGLY - February, 2012

Change the Weather History Date:

Tuesday, February 21, 2012

  Actual Average (KSZL) Record (KSZL)
Temperature  
Mean Temperature 47 °F -  
Max Temperature 55 °F 44 °F 64 °F (2000)
Min Temperature 39 °F 28 °F 15 °F (2006)
Degree Days  
Heating Degree Days 18    
Moisture  
Dew Point 34 °F    
Average Humidity 65    
Maximum Humidity 87    
Minimum Humidity 38    
Precipitation  
Precipitation 0.00 in - - ()
Sea Level Pressure  
Sea Level Pressure 29.87 in    
Wind  
Wind Speed 14 mph (WSW)    
Max Wind Speed 21 mph    
Max Gust Speed 30 mph    
Visibility 10 miles    
Events      
Averages and records for this station are not official NWS values.
T = Trace of Precipitation, MM = Missing Value Source: NWS Daily Summary

Daily Weather History Graph

Daily Weather History Graph

Search for Another Location

Airport or City:

Trip Planner

Search our weather history database for the weather conditions in past years. The results will help you decide how hot, cold, wet, or windy it might be!

Date:

Astronomy

Feb. 21, 2012 Rise Set
Actual Time 6:58 AM CST 5:59 PM CST
Civil Twilight 6:31 AM CST 6:25 PM CST
Nautical Twilight 6:00 AM CST 6:56 PM CST
Astronomical Twilight 5:30 AM CST 7:27 PM CST
Moon 6:27 AM CST (2/21) 6:05 PM CST (2/21)
Length of Visible Light 11h 54m
Length of Day
11h 00m
Waning Crescent, 0% of the Moon is Illuminated
Feb 21
Waning Crescent
Feb 21
New
Feb 29
First Quarter
Mar 8
Full
Mar 14
Last Quarter

Hourly Weather History & Observations

Time (CST) Temp. Windchill Dew Point Humidity Pressure Visibility Wind Dir Wind Speed Gust Speed Precip Events Conditions
12:15 AM 44.6 °F 38.8 °F 41.0 °F 87% 29.67 in 10.0 mi SSW 11.5 mph 18.4 mph N/A   Overcast
12:35 AM 44.6 °F 36.9 °F 39.2 °F 81% 29.68 in 10.0 mi WSW 18.4 mph 24.2 mph N/A   Overcast
12:55 AM 42.8 °F 35.4 °F 37.4 °F 81% 29.69 in 10.0 mi WSW 15.0 mph 24.2 mph N/A   Overcast
1:15 AM 42.8 °F 35.8 °F 37.4 °F 81% 29.69 in 10.0 mi SW 13.8 mph 25.3 mph N/A   Overcast
1:35 AM 42.8 °F 34.8 °F 37.4 °F 81% 29.71 in 10.0 mi SW 17.3 mph - N/A   Overcast
1:55 AM 42.8 °F 34.8 °F 39.2 °F 87% 29.72 in 10.0 mi WSW 17.3 mph 25.3 mph N/A   Overcast
2:15 AM 42.8 °F 35.1 °F 37.4 °F 81% 29.72 in 10.0 mi WSW 16.1 mph 26.5 mph N/A   Overcast
2:35 AM 42.8 °F 35.8 °F 37.4 °F 81% 29.73 in 10.0 mi SW 13.8 mph - N/A   Overcast
2:55 AM 42.8 °F 34.8 °F 37.4 °F 81% 29.74 in 10.0 mi WSW 17.3 mph 25.3 mph N/A   Overcast
3:15 AM 42.8 °F 35.8 °F 39.2 °F 87% 29.75 in 10.0 mi West 13.8 mph 18.4 mph N/A   Overcast
3:35 AM 42.8 °F 35.1 °F 39.2 °F 87% 29.76 in 9.0 mi WSW 16.1 mph 23.0 mph N/A   Overcast
3:55 AM 42.8 °F 34.0 °F 39.2 °F 87% 29.78 in 7.0 mi WSW 20.7 mph 29.9 mph N/A   Overcast
4:15 AM 42.8 °F 34.8 °F 37.4 °F 81% 29.78 in 8.0 mi West 17.3 mph 27.6 mph N/A   Overcast
4:35 AM 42.8 °F 34.3 °F 37.4 °F 81% 29.80 in 8.0 mi West 19.6 mph 25.3 mph N/A   Overcast
4:55 AM 42.8 °F 34.0 °F 37.4 °F 81% 29.82 in 10.0 mi West 20.7 mph 25.3 mph N/A   Overcast
5:15 AM 42.8 °F 35.1 °F 37.4 °F 81% 29.84 in 10.0 mi WSW 16.1 mph 23.0 mph N/A   Overcast
5:55 AM 41.0 °F 31.9 °F 35.6 °F 81% 29.86 in 10.0 mi WSW 19.6 mph 24.2 mph N/A   Overcast
6:15 AM 41.0 °F 32.8 °F 35.6 °F 81% 29.88 in 10.0 mi West 16.1 mph 21.9 mph N/A   Overcast
6:35 AM 39.2 °F 31.2 °F 33.8 °F 81% 29.89 in 10.0 mi West 13.8 mph 19.6 mph N/A   Overcast
6:55 AM 39.2 °F 32.0 °F 35.6 °F 87% 29.90 in 10.0 mi West 11.5 mph - N/A   Overcast
7:15 AM 39.2 °F 31.6 °F 33.8 °F 81% 29.91 in 10.0 mi West 12.7 mph - N/A   Overcast
7:35 AM 39.2 °F 30.2 °F 33.8 °F 81% 29.92 in 10.0 mi West 17.3 mph - N/A   Overcast
7:55 AM 39.2 °F 31.6 °F 33.8 °F 81% 29.93 in 10.0 mi West 12.7 mph 18.4 mph N/A   Mostly Cloudy
8:15 AM 39.2 °F 32.0 °F 33.8 °F 81% 29.94 in 10.0 mi West 11.5 mph - N/A   Partly Cloudy
8:35 AM 41.0 °F 33.9 °F 33.8 °F 76% 29.94 in 10.0 mi West 12.7 mph - N/A   Clear
8:55 AM 42.8 °F 35.4 °F 33.8 °F 70% 29.96 in 10.0 mi West 15.0 mph - N/A   Clear
9:15 AM 42.8 °F 37.0 °F 33.8 °F 70% 29.96 in 10.0 mi West 10.4 mph - N/A   Clear
9:35 AM 42.8 °F 37.0 °F 33.8 °F 70% 29.97 in 10.0 mi West 10.4 mph - N/A   Clear
9:55 AM 44.6 °F 39.2 °F 33.8 °F 66% 29.97 in 10.0 mi WSW 10.4 mph - N/A   Clear
10:15 AM 46.4 °F 42.4 °F 33.8 °F 62% 29.96 in 10.0 mi West 8.1 mph - N/A   Clear
10:35 AM 46.4 °F 42.4 °F 33.8 °F 62% 29.95 in 10.0 mi WSW 8.1 mph - N/A   Clear
10:55 AM 48.2 °F - 35.6 °F 62% 29.96 in 10.0 mi WSW 9.2 mph - N/A   Clear
11:15 AM 48.2 °F - 35.6 °F 62% 29.96 in 10.0 mi SW 8.1 mph - N/A   Clear
11:35 AM 48.2 °F - 35.6 °F 62% 29.97 in 10.0 mi SW 11.5 mph 17.3 mph N/A   Clear
11:55 AM 50.0 °F - 33.8 °F 54% 29.97 in 10.0 mi West 11.5 mph - N/A   Clear
12:15 PM 51.8 °F - 33.8 °F 50% 29.96 in 10.0 mi SW 9.2 mph - N/A   Clear
12:35 PM 51.8 °F - 33.8 °F 50% 29.95 in 10.0 mi SW 12.7 mph 16.1 mph N/A   Clear
12:55 PM 53.6 °F - 32.0 °F 44% 29.94 in 10.0 mi SW 13.8 mph 18.4 mph N/A   Clear
1:15 PM 51.8 °F - 33.8 °F 50% 29.93 in 10.0 mi SW 12.7 mph - N/A   Clear
1:35 PM 53.6 °F - 32.0 °F 44% 29.92 in 10.0 mi SW 12.7 mph - N/A   Clear
1:55 PM 51.8 °F - 32.0 °F 47% 29.92 in 10.0 mi SW 12.7 mph 17.3 mph N/A   Clear
2:35 PM 53.6 °F - 30.2 °F 41% 29.90 in 10.0 mi WSW 15.0 mph - N/A   Partly Cloudy
2:55 PM 53.6 °F - 32.0 °F 44% 29.90 in 10.0 mi SW 15.0 mph - N/A   Clear
3:15 PM 55.4 °F - 30.2 °F 38% 29.89 in 10.0 mi SW 17.3 mph 24.2 mph N/A   Clear
3:35 PM 55.4 °F - 30.2 °F 38% 29.89 in 10.0 mi SW 18.4 mph 23.0 mph N/A   Clear
3:55 PM 55.4 °F - 32.0 °F 41% 29.88 in 10.0 mi SW 15.0 mph 23.0 mph N/A   Clear
4:15 PM 55.4 °F - 32.0 °F 41% 29.88 in 10.0 mi WSW 16.1 mph 20.7 mph N/A   Clear
4:35 PM 53.6 °F - 32.0 °F 44% 29.88 in 10.0 mi WSW 16.1 mph 21.9 mph N/A   Clear
4:55 PM 53.6 °F - 32.0 °F 44% 29.88 in 10.0 mi SW 12.7 mph 19.6 mph N/A   Clear
5:15 PM 53.6 °F - 30.2 °F 41% 29.87 in 10.0 mi SW 12.7 mph 17.3 mph N/A   Clear
5:35 PM 53.6 °F - 30.2 °F 41% 29.87 in 10.0 mi SW 9.2 mph - N/A   Clear
5:55 PM 51.8 °F - 32.0 °F 47% 29.88 in 10.0 mi SW 6.9 mph - N/A   Clear
6:15 PM 48.2 °F - 32.0 °F 54% 29.88 in 10.0 mi SW 6.9 mph - N/A   Clear
6:35 PM 48.2 °F - 32.0 °F 54% 29.88 in 10.0 mi SSW 5.8 mph - N/A   Clear
7:15 PM 46.4 °F 43.5 °F 32.0 °F 57% 29.89 in 10.0 mi SSW 5.8 mph - N/A   Clear
7:35 PM 44.6 °F 41.4 °F 32.0 °F 61% 29.88 in 10.0 mi SSW 5.8 mph - N/A   Clear
7:55 PM 44.6 °F 41.4 °F 32.0 °F 61% 29.88 in 10.0 mi SSW 5.8 mph - N/A   Clear
8:15 PM 44.6 °F 42.2 °F 32.0 °F 61% 29.87 in 10.0 mi SSW 4.6 mph - N/A   Clear
8:35 PM 44.6 °F 42.2 °F 32.0 °F 61% 29.86 in 10.0 mi South 4.6 mph - N/A   Clear
8:55 PM 44.6 °F 42.2 °F 32.0 °F 61% 29.85 in 10.0 mi South 4.6 mph - N/A   Clear
9:15 PM 46.4 °F 44.3 °F 30.2 °F 53% 29.84 in 10.0 mi South 4.6 mph - N/A   Clear
9:35 PM 44.6 °F 40.7 °F 30.2 °F 57% 29.84 in 10.0 mi South 6.9 mph - N/A   Clear
9:55 PM 42.8 °F 40.1 °F 30.2 °F 61% 29.84 in 10.0 mi South 4.6 mph - N/A   Clear
10:15 PM 42.8 °F 39.3 °F 30.2 °F 61% 29.83 in 10.0 mi South 5.8 mph - N/A   Clear
10:35 PM 42.8 °F 38.6 °F 30.2 °F 61% 29.83 in 10.0 mi South 6.9 mph - N/A   Clear
10:55 PM 42.8 °F 39.3 °F 30.2 °F 61% 29.82 in 10.0 mi SSW 5.8 mph - N/A   Clear
11:15 PM 42.8 °F 38.6 °F 30.2 °F 61% 29.81 in 10.0 mi SSW 6.9 mph - N/A   Clear
11:35 PM 42.8 °F 38.6 °F 30.2 °F 61% 29.80 in 10.0 mi SSW 6.9 mph - N/A   Clear
11:55 PM 42.8 °F 39.3 °F 30.2 °F 61% 29.79 in 10.0 mi SSW 5.8 mph - N/A   Clear